Regional Weather Roundup
Issued by NWS Charleston, SC

Current Version | Previous Version | Text Only | Print | Product List | Glossary Off
Versions: 1 2 3 4 5 6 7 8 9 10 11 12 13 14 15 16 17 18 19 20 21 22 23 24 25 26 27 28 29 30 31 32 33 34 35 36 37 38 39 40 41 42 43 44 45 46 47 48 49 50

000
ASUS42 KCHS 032312
RWRCHS

REGIONAL WEATHER ROUNDUP
NATIONAL WEATHER SERVICE CHARLESTON SC
600 PM EST SAT DEC 03 2016

NOTE: "FAIR" INDICATES FEW OR NO CLOUDS BELOW 12,000 FEET WITH NO
SIGNIFICANT WEATHER AND/OR OBSTRUCTIONS TO VISIBILITY.

NOT ALL STATIONS ARE QUALITY CONTROLLED. USE DATA WITH CAUTION...
ESPECIALLY DEWPOINT OBSERVATIONS.

SCZ027-030-031-034>040-042>050-040000-
...SOUTHEAST SOUTH CAROLINA...

CITY           SKY/WX    TMP DP  RH WIND       PRES   REMARKS
N CHARLESTON   MOCLDY    54  38  54 NE5       30.22S
WATERFRONT PRK   N/A     55  44  66 VRB2      30.22S
MOUNT PLEASANT NOT AVBL
JOHNS ISLAND   FAIR      52  45  76 CALM      30.23S
PINOPOLIS        N/A     54  39  58 N6        30.15S
MONCKS CORNER  FAIR      52  37  58 CALM      30.23S
SUMMERVILLE    FAIR      52  41  66 N3        30.25R
BEAUFORT MCAS  CLOUDY    55  42  61 E5        30.22R
BEAUFORT ARPT  FAIR      54  43  66 NE3       30.22R
HILTON HEAD IS NOT AVBL
WALTERBORO     CLOUDY    54  43  66 CALM      30.24R
ALLENDALE      CLOUDY    54  41  62 CALM      30.22S

...SOUTHERN MIDLANDS AND PEE DEE...

CITY           SKY/WX    TMP DP  RH WIND       PRES   REMARKS
GEORGETOWN     NOT AVBL
KINGSTREE      FAIR      45  39  81 CALM      30.24S
ORANGEBURG     PTCLDY    50  37  61 CALM      30.25R
BARNWELL       NOT AVBL
AIKEN          CLOUDY    50  37  62 CALM      30.26S
MANNING        NOT AVBL
COLUMBIA       CLOUDY    51  40  65 CALM      30.24R
SUMTER         PTCLDY    49  37  64 CALM      30.22S
FLORENCE       MOCLDY    50  39  66 CALM      30.24F
MYRTLE BEACH   MOCLDY    48  34  57 NE12      30.26S
N MYRTLE BEACH CLOUDY    48  37  65 CALM      30.24R

$$

GAZ063-065-086>088-099>101-113>116-118-119-134>141-150-040000-
...SOUTHEAST GEORGIA...

CITY           SKY/WX    TMP DP  RH WIND       PRES   REMARKS
SAVANNAH ARPT  CLOUDY    56  39  53 E9        30.22R
HUNTER AAF     CLOUDY    56  46  68 NE6       30.19R
FORT STEWART   CLOUDY    56  45  65 CALM      30.19R
STATESBORO     CLOUDY    58  43  56 NE3       30.21R
SYLVANIA       CLOUDY   N/A N/A N/A NE6       30.22S
CLAXTON        MOCLDY    55  47  76 CALM      30.21R

...CSRA...CENTRAL AND FAR SOUTHEAST GEORGIA...

CITY           SKY/WX    TMP DP  RH WIND       PRES   REMARKS
THOMSON        CLOUDY    55  44  66 CALM      30.28R
AUGUSTA-BUSH   CLOUDY    55  38  52 NE5       30.23S
AUGUSTA-DANIEL CLOUDY    56  34  43 NE5       30.23S
SWAINSBORO     CLOUDY    57  36  44 NE3       30.22R
VIDALIA        CLOUDY    59  45  58 E3        30.21R
EASTMAN        CLOUDY    61  19  19 CALM      30.23R
HAZLEHURST     CLOUDY    60  39  45 CALM      30.19R
ALMA           MOCLDY    56  44  64 CALM      30.18S
WAYCROSS       CLOUDY    60  47  62 E5        30.18S
JESUP          MOCLDY    57  50  77 CALM      30.20R
BAXLEY         MOCLDY    57  46  67 CALM      30.18S
BRUNSWICK      CLEAR     57  52  82 NE5       30.19S
SAINT SIMONS   CLEAR     59  49  69 NE8       30.17F

$$

SCZ027-028-034-036>038-045-046-048>050-GAZ119-141-040000-
...LAKE AND SUPPLEMENTAL COASTAL OBSERVATIONS...

STATION/POSITION TIME  TEMP    WIND        PRES    WAVE   SWELL
                       AIR SEA DIR/SP/G            HT/PER HT/PER/DIR
                 (UTC) (F)     (DEG/KT/KT) (MB)    (FT/S) (FT/S/D)
WINYAH BAY       NOT AVBL
LAKE MURRAY      2220   52        CALM     1023.4
ACE BASIN NERRS  2145   56      50/  1     1023.0
FORT PULASKI     2242   57 62   70/ 10/ 12 1023.1R
SAPELO ISLAND    2200   59      40/  7     1022.0

$$

ANZ835-935-AMZ111-154-330-350-352-354-370-450-454-472-040000-
...C-MAN AND BUOY OBSERVATIONS...

STATION/POSITION TIME  TEMP    WIND        PRES    WAVE   SWELL
                       AIR SEA DIR/SP/G            HT/PER HT/PER/DIR
                 (UTC) (F)     (DEG/KT/KT) (MB)    (FT/S) (FT/S/D)
BUOY 41004       2250   56 75   20/ 12/ 16 1023.1R   4/ 6   3/ 30/ 6
BUOY 41008       2250   62 65   60/ 14/ 19 1021.8F   3/ 5   2/130/ 8
FOLLY BEACH CMAN 2200   54      30/  3/  4 1024.0R
CAPERS NEARSHORE 2208   53 62   70/  6/  8 1023.6R
FRIPP NEARSHORE  2208   56 62   60/ 10/ 14 1022.6F


STATION/POSITION TIME  TEMP    WIND        PRES    WAVE   SWELL
                       AIR SEA DIR/SP/G            HT/PER HT/PER/DIR
                 (UTC) (F)     (DEG/KT/KT) (MB)    (FT/S) (FT/S/D)
5E ST. MARYS GA  2300      66                N/A     3/ 4
FRYING PAN BUOY  2250   54 73  360/ 12/ 16 1024.0R   3/ 6   2/130/ 8
BUOY 41025       2250   65 74   10/ 16/ 21 1022.5R   5/ 8   3/ 30/ 8
CAPE LOOKOUT NC  2200   50     360/  8/  9 1023.1R
BUOY 41002       2250   63 73  350/ 12/ 16 1021.0R   5/ 7   5/ 10/ 7
BUOY 41010       NOT AVBL
ST AUGUSTINE FL  2300   66 67   20/ 16/ 17 1021.2R


$$




USA.gov is the U.S. government's official web portal to all federal, state and local government web resources and services.